Location: Kalisz
(51.7636°N, 18.0893°E)
Time: 15:01:09
(UTC+01:00)

ISS - Pass Details

Date: 30 January 2019
Orbit: 403 x 411 km, 51.6° (Epoch: 20 February)

Event Time Altitude Azimuth Distance (km) Brightness Sun altitude
Rises 17:25:10 0° 249° (WSW) 2,329 2.5 -8.4°
Reaches altitude 10° 17:27:15 10° 246° (WSW) 1,472 0.7 -8.7°
Maximum altitude 17:30:31 65° 164° (SSE) 454 -3.6 -9.2°
Enters shadow 17:33:17 14° 83° (E) 1,270 -2.0 -9.6°
